When you browse on this site, cookies collect data to enhance your experience and personalize the content and advertising you see.
Visit our Privacy Policy to learn more. By continuing to use the site, you agree to this use of cookies and data.
  • In Latvia
  • List of Countries
  • For 7 days
  • Water Temperature
  • Satellite Maps
  • Weather Map
  • Weather Widgets
  • user-avatar
    Login

    Hourly Weather Priuzenskiy

    Today, 17 June, Monday

    Time Temperature Precipitation Wind Pressure Humidity
    00:00 +19°C° 0 mm 2 mps 755 mmHg 58%
    01:00 +18°C° 0 mm 2 mps 755 mmHg 60%
    02:00 +18°C° 0 mm 2 mps 755 mmHg 61%
    03:00 +19°C° 0 mm 1 mps 755 mmHg 65%
    04:00 +18°C° 0 mm 2 mps 755 mmHg 63%
    05:00 +19°C° 0 mm 3 mps 756 mmHg 60%
    06:00 +20°C° 0 mm 4 mps 756 mmHg 58%
    07:00 +22°C° 0 mm 4 mps 756 mmHg 53%
    08:00 +23°C° 0 mm 5 mps 756 mmHg 49%
    09:00 +26°C° 0 mm 5 mps 757 mmHg 44%
    10:00 +26°C° 0 mm 5 mps 757 mmHg 41%
    11:00 +27°C° 0 mm 4 mps 757 mmHg 38%
    12:00 +28°C° 0 mm 4 mps 757 mmHg 35%
    13:00 +28°C° 0 mm 4 mps 757 mmHg 34%
    14:00 +28°C° 0 mm 4 mps 757 mmHg 32%
    15:00 +29°C° 0 mm 3 mps 757 mmHg 30%
    16:00 +29°C° 0 mm 3 mps 757 mmHg 31%
    17:00 +28°C° 0 mm 3 mps 757 mmHg 32%
    18:00 +28°C° 0 mm 3 mps 757 mmHg 33%
    19:00 +26°C° 0 mm 3 mps 757 mmHg 37%
    20:00 +24°C° 0 mm 3 mps 757 mmHg 42%
    21:00 +21°C° 0 mm 3 mps 757 mmHg 47%
    22:00 +21°C° 0 mm 3 mps 757 mmHg 50%
    23:00 +20°C° 0 mm 3 mps 758 mmHg 54%

    Tomorrow, 18 June, Tuesday

    Time Temperature Precipitation Wind Pressure Humidity
    00:00 +19°C° 0 mm 3 mps 758 mmHg 57%
    01:00 +19°C° 0 mm 3 mps 758 mmHg 59%
    02:00 +18°C° 0 mm 2 mps 758 mmHg 60%
    03:00 +18°C° 0 mm 2 mps 758 mmHg 62%
    04:00 +20°C° 0 mm 1 mps 758 mmHg 57%
    05:00 +22°C° 0 mm 1 mps 758 mmHg 52%
    06:00 +23°C° 0 mm 1 mps 758 mmHg 47%
    07:00 +25°C° 0 mm 1 mps 758 mmHg 43%
    08:00 +26°C° 0 mm 1 mps 758 mmHg 39%
    09:00 +27°C° 0 mm 1 mps 758 mmHg 35%
    10:00 +28°C° 0 mm 1 mps 758 mmHg 33%
    11:00 +29°C° 0 mm 2 mps 758 mmHg 32%
    12:00 +30°C° 0 mm 2 mps 757 mmHg 30%
    13:00 +30°C° 0 mm 3 mps 757 mmHg 29%
    14:00 +30°C° 0 mm 3 mps 757 mmHg 28%
    15:00 +31°C° 0 mm 3 mps 756 mmHg 28%
    16:00 +30°C° 0 mm 3 mps 756 mmHg 30%
    17:00 +30°C° 0 mm 4 mps 756 mmHg 32%
    18:00 +29°C° 0 mm 4 mps 756 mmHg 35%
    19:00 +27°C° 0 mm 3 mps 756 mmHg 40%
    20:00 +25°C° 0 mm 3 mps 756 mmHg 45%
    21:00 +22°C° 0 mm 3 mps 756 mmHg 51%
    22:00 +23°C° 0 mm 2 mps 756 mmHg 53%
    23:00 +21°C° 0 mm 2 mps 756 mmHg 55%

    Day after tomorrow, 19 June, Wednesday

    Time Temperature Precipitation Wind Pressure Humidity
    00:00 +21°C° 0 mm 1 mps 756 mmHg 57%
    01:00 +20°C° 0 mm 1 mps 756 mmHg 59%
    02:00 +20°C° 0 mm 1 mps 756 mmHg 62%
    03:00 +19°C° 0 mm 1 mps 756 mmHg 64%
    04:00 +21°C° 0 mm 1 mps 756 mmHg 60%
    05:00 +23°C° 0 mm 1 mps 756 mmHg 55%
    06:00 +24°C° 0 mm 2 mps 756 mmHg 50%
    07:00 +25°C° 0 mm 2 mps 756 mmHg 47%
    08:00 +27°C° 0 mm 2 mps 756 mmHg 43%
    09:00 +28°C° 0 mm 2 mps 756 mmHg 40%
    10:00 +29°C° 0 mm 2 mps 756 mmHg 37%
    11:00 +30°C° 0 mm 1 mps 756 mmHg 35%
    12:00 +31°C° 0 mm 1 mps 755 mmHg 32%
    13:00 +31°C° 0 mm 2 mps 755 mmHg 31%
    14:00 +32°C° 0 mm 2 mps 755 mmHg 30%
    15:00 +32°C° 0 mm 2 mps 754 mmHg 29%
    16:00 +33°C° 0 mm 3 mps 755 mmHg 32%
    17:00 +31°C° 0 mm 3 mps 755 mmHg 34%
    18:00 +32°C° 0 mm 4 mps 755 mmHg 37%
    19:00 +29°C° 0 mm 4 mps 755 mmHg 45%
    20:00 +27°C° 0 mm 3 mps 755 mmHg 53%
    21:00 +25°C° 0 mm 3 mps 755 mmHg 62%
    22:00 +24°C° 0.7 mm 2 mps 756 mmHg 67%
    23:00 +23°C° 0.7 mm 2 mps 756 mmHg 72%

    20 June, Thursday

    Time Temperature Precipitation Wind Pressure Humidity
    00:00 +21°C° 0.7 mm 2 mps 756 mmHg 77%
    01:00 +21°C° 0 mm 2 mps 756 mmHg 77%
    02:00 +20°C° 0 mm 2 mps 756 mmHg 78%
    03:00 +20°C° 0 mm 3 mps 756 mmHg 78%
    04:00 +21°C° 0 mm 3 mps 756 mmHg 75%
    05:00 +21°C° 0 mm 4 mps 756 mmHg 71%
    06:00 +22°C° 0 mm 4 mps 757 mmHg 67%
    07:00 +25°C° 0 mm 4 mps 757 mmHg 59%
    08:00 +27°C° 0 mm 5 mps 757 mmHg 52%
    09:00 +28°C° 0 mm 5 mps 757 mmHg 44%
    10:00 +29°C° 0 mm 5 mps 757 mmHg 40%
    11:00 +30°C° 0 mm 5 mps 757 mmHg 37%
    12:00 +32°C° 0 mm 5 mps 757 mmHg 33%
    13:00 +32°C° 0 mm 5 mps 757 mmHg 33%
    14:00 +33°C° 0 mm 5 mps 757 mmHg 32%
    15:00 +33°C° 0 mm 5 mps 757 mmHg 31%
    16:00 +33°C° 0 mm 5 mps 757 mmHg 33%
    17:00 +32°C° 0 mm 5 mps 757 mmHg 35%
    18:00 +30°C° 0 mm 6 mps 757 mmHg 37%
    19:00 +29°C° 0 mm 5 mps 758 mmHg 40%
    20:00 +27°C° 0 mm 5 mps 758 mmHg 44%
    21:00 +25°C° 0 mm 5 mps 758 mmHg 47%
    22:00 +23°C° 0 mm 4 mps 758 mmHg 51%
    23:00 +22°C° 0 mm 4 mps 759 mmHg 55%

    21 June, Friday

    Time Temperature Precipitation Wind Pressure Humidity
    00:00 +21°C° 0 mm 4 mps 759 mmHg 59%
    01:00 +21°C° 0 mm 3 mps 759 mmHg 61%
    02:00 +20°C° 0 mm 3 mps 759 mmHg 64%
    03:00 +20°C° 0 mm 3 mps 759 mmHg 66%
    04:00 +21°C° 0 mm 4 mps 760 mmHg 65%
    05:00 +22°C° 0 mm 4 mps 760 mmHg 63%
    06:00 +23°C° 0 mm 4 mps 760 mmHg 62%
    07:00 +25°C° 0 mm 4 mps 760 mmHg 57%
    08:00 +27°C° 0 mm 5 mps 760 mmHg 52%
    09:00 +29°C° 0 mm 5 mps 760 mmHg 46%
    10:00 +30°C° 0 mm 5 mps 760 mmHg 42%
    11:00 +32°C° 0 mm 5 mps 760 mmHg 38%
    12:00 +33°C° 0 mm 5 mps 760 mmHg 34%
    13:00 +33°C° 0 mm 5 mps 760 mmHg 32%
    14:00 +34°C° 0 mm 5 mps 760 mmHg 30%
    15:00 +34°C° 0 mm 5 mps 760 mmHg 29%
    16:00 +33°C° 0 mm 5 mps 760 mmHg 30%
    17:00 +33°C° 0 mm 5 mps 760 mmHg 32%
    18:00 +32°C° 0 mm 5 mps 760 mmHg 33%
    19:00 +29°C° 0 mm 4 mps 760 mmHg 37%
    20:00 +28°C° 0 mm 4 mps 760 mmHg 42%
    21:00 +26°C° 0 mm 4 mps 760 mmHg 46%
    22:00 +25°C° 0 mm 4 mps 760 mmHg 50%
    23:00 +23°C° 0 mm 4 mps 761 mmHg 54%

    22 June, Saturday

    Time Temperature Precipitation Wind Pressure Humidity
    00:00 +23°C° 0 mm 4 mps 761 mmHg 59%
    01:00 +22°C° 0 mm 3 mps 761 mmHg 61%
    02:00 +22°C° 0 mm 3 mps 761 mmHg 63%
    03:00 +21°C° 0 mm 3 mps 761 mmHg 65%
    04:00 +22°C° 0 mm 4 mps 761 mmHg 62%
    05:00 +23°C° 0 mm 4 mps 762 mmHg 59%
    06:00 +23°C° 0 mm 4 mps 762 mmHg 56%
    07:00 +26°C° 0 mm 5 mps 762 mmHg 51%
    08:00 +28°C° 0 mm 5 mps 762 mmHg 45%
    09:00 +29°C° 0 mm 5 mps 762 mmHg 40%
    10:00 +30°C° 0 mm 5 mps 762 mmHg 37%
    11:00 +32°C° 0 mm 5 mps 762 mmHg 34%
    12:00 +33°C° 0 mm 5 mps 762 mmHg 32%
    13:00 +33°C° 0 mm 5 mps 761 mmHg 31%
    14:00 +34°C° 0 mm 5 mps 761 mmHg 30%
    15:00 +34°C° 0 mm 5 mps 761 mmHg 29%
    16:00 +33°C° 0 mm 5 mps 761 mmHg 30%
    17:00 +33°C° 0 mm 5 mps 761 mmHg 32%
    18:00 +32°C° 0 mm 5 mps 761 mmHg 33%
    19:00 +29°C° 0 mm 5 mps 761 mmHg 37%
    20:00 +27°C° 0 mm 4 mps 761 mmHg 40%
    21:00 +26°C° 0 mm 3 mps 762 mmHg 44%
    22:00 +25°C° 0 mm 3 mps 761 mmHg 45%
    23:00 +24°C° 0 mm 3 mps 761 mmHg 45%
    Show more